FW2316 Weather Reports


Display with metric or nautical units.
time (UTC)temp
F
wind
direction
speed
MPH
gust
MPH
rain 1hr
in
rain 24hr
in
rain mn
in
humidity
%
barometer
mb
20260905104041 50 119 0.0 1.0 0.00 0.07 0.00 90 1017.8
20260905103538 51 119 0.0 2.0 0.00 0.07 0.00 89 1017.8
20260905103039 51 119 0.0 2.0 0.00 0.07 0.00 89 1017.7
20260905102538 51 119 0.0 3.0 0.00 0.07 0.00 88 1017.7
20260905102038 51 119 0.0 3.0 0.00 0.07 0.00 89 1017.7
20260905101548 51 119 0.0 2.0 0.00 0.07 0.00 89 1017.7
20260905101038 51 119 0.0 2.0 0.00 0.07 0.00 89 1017.8
20260905100535 51 119 0.0 2.0 0.00 0.07 0.00 90 1017.8
20260905100040 50 119 0.0 1.0 0.00 0.07 0.00 91 1017.8
20260905095035 50 119 0.0 1.0 0.00 0.07 0.00 91 1017.8
20260905094535 50 119 0.0 1.0 0.00 0.07 0.00 91 1017.8
20260905094035 50 119 0.0 2.0 0.00 0.07 0.00 91 1017.8
20260905093534 50 119 0.0 0.0 0.00 0.07 0.00 91 1017.8
20260905093034 51 119 0.0 0.0 0.00 0.07 0.00 91 1017.8
20260905092533 51 119 0.0 0.0 0.00 0.07 0.00 91 1017.8
20260905092032 51 119 0.0 0.0 0.00 0.07 0.07 90 1017.8
20260905091534 51 119 0.0 0.0 0.00 0.07 0.07 91 1017.8
20260905091031 51 119 0.0 0.0 0.00 0.07 0.07 91 1017.8
20260905090530 51 119 0.0 0.0 0.00 0.07 0.07 91 1017.8
20260905090030 51 119 0.0 0.0 0.00 0.07 0.07 91 1017.7
20260905085030 51 119 0.0 0.0 0.00 0.07 0.07 91 1017.9
20260905084536 51 119 0.0 0.0 0.00 0.07 0.07 91 1017.8
20260905084029 51 119 0.0 0.0 0.00 0.07 0.07 91 1017.7
20260905083528 51 119 0.0 0.0 0.00 0.07 0.07 91 1017.6
20260905083032 51 119 0.0 0.0 0.00 0.07 0.07 90 1017.6
20260905082527 51 119 0.0 0.0 0.00 0.07 0.07 90 1017.7
20260905082027 52 119 0.0 0.0 0.00 0.10 0.07 89 1017.6
20260905081528 52 119 0.0 0.0 0.00 0.10 0.07 88 1017.6
20260905081027 52 119 0.0 2.0 0.00 0.10 0.07 88 1017.6
20260905080526 53 119 0.0 2.0 0.00 0.10 0.07 88 1017.6
20260905080038 53 119 0.0 2.0 0.00 0.10 0.07 87 1017.5
20260905075026 53 120 0.0 4.0 0.00 0.10 0.07 87 1017.5
20260905074526 53 118 0.0 4.0 0.00 0.10 0.07 87 1017.5
20260905074026 53 117 0.0 3.0 0.00 0.10 0.07 87 1017.4
20260905073524 53 117 0.0 2.0 0.00 0.10 0.07 87 1017.4
20260905073024 53 117 0.0 3.0 0.00 0.10 0.07 87 1017.4
20260905072524 53 117 0.0 3.0 0.00 0.10 0.07 87 1017.3
20260905072125 53 117 0.0 2.0 0.00 0.11 0.07 87 1017.3
20260905071524 53 117 0.0 2.0 0.00 0.11 0.07 87 1017.3
20260905071026 53 117 0.0 3.0 0.00 0.11 0.07 87 1017.3
20260905070522 53 117 0.0 3.0 0.00 0.11 0.07 87 1017.2
20260905070022 53 118 0.0 4.0 0.00 0.11 0.07 87 1017.3
20260905065021 54 117 0.0 3.0 0.00 0.11 0.07 87 1017.3
20260905064520 54 117 1.0 3.0 0.00 0.11 0.07 87 1017.2
20260905064021 54 117 0.0 4.0 0.00 0.11 0.07 87 1017.2
20260905063520 54 117 0.0 7.0 0.00 0.11 0.07 87 1017.0
20260905063020 54 116 1.0 7.0 0.00 0.11 0.07 87 1017.1
20260905062523 54 126 1.0 6.0 0.00 0.11 0.07 88 1017.1
20260905062021 54 126 2.0 6.0 0.00 0.14 0.07 88 1017.0
20260905061525 54 123 2.0 7.0 0.00 0.14 0.07 88 1017.1
20260905061018 54 125 1.0 7.0 0.00 0.14 0.07 88 1016.9
20260905060518 54 114 0.0 4.0 0.00 0.14 0.07 88 1016.9
20260905060025 54 113 1.0 4.0 0.00 0.14 0.07 88 1016.9
20260905055019 54 85 0.0 4.0 0.00 0.14 0.07 89 1017.0
20260905054518 54 82 1.0 4.0 0.00 0.14 0.07 89 1016.9
20260905054019 54 78 0.0 5.0 0.00 0.14 0.07 89 1016.9
20260905053519 54 86 2.0 6.0 0.00 0.14 0.07 90 1016.9
20260905053018 54 91 0.0 7.0 0.00 0.14 0.07 90 1017.1
20260905052522 54 92 1.0 7.0 0.00 0.14 0.07 90 1017.0
20260905052022 54 106 1.0 3.0 0.00 0.14 0.07 90 1017.0
20260905051524 54 107 0.0 3.0 0.00 0.14 0.07 91 1017.0
20260905051018 53 107 0.0 3.0 0.00 0.14 0.07 91 1016.9
20260905050518 53 107 1.0 3.0 0.00 0.14 0.07 91 1017.0
20260905050018 53 107 0.0 3.0 0.00 0.14 0.07 92 1017.1
20260905045022 53 107 0.0 3.0 0.00 0.14 0.07 91 1017.0
20260905044519 53 106 0.0 1.0 0.00 0.14 0.07 91 1017.1
20260905044017 53 106 0.0 1.0 0.00 0.14 0.07 91 1017.1
20260905043517 53 106 0.0 1.0 0.00 0.14 0.07 91 1017.0
20260905043017 53 106 0.0 2.0 0.00 0.14 0.07 91 1017.0
20260905042520 53 106 0.0 3.0 0.00 0.14 0.07 91 1017.0
20260905042017 54 106 0.0 3.0 0.00 0.14 0.07 91 1017.0
20260905041618 53 106 0.0 4.0 0.00 0.14 0.07 91 1017.0
20260905041016 54 105 0.0 6.0 0.00 0.14 0.07 91 1017.0
20260905040515 54 92 1.0 6.0 0.00 0.14 0.07 90 1017.0
20260905040016 54 76 0.0 2.0 0.00 0.14 0.07 90 1017.0
20260905035017 54 75 1.0 4.0 0.00 0.14 0.07 90 1017.0
20260905034514 54 69 0.0 3.0 0.00 0.14 0.07 90 1017.0
20260905034013 54 68 0.0 2.0 0.00 0.14 0.07 89 1016.9
20260905033514 54 64 0.0 2.0 0.00 0.14 0.07 89 1016.9
20260905033023 55 64 0.0 4.0 0.00 0.14 0.07 89 1016.9
20260905032511 55 64 0.0 4.0 0.00 0.14 0.07 89 1016.9
20260905032011 55 59 1.0 4.0 0.00 0.15 0.07 89 1016.8
20260905031513 55 44 0.0 3.0 0.00 0.15 0.07 90 1016.7
20260905031010 54 44 0.0 4.0 0.00 0.15 0.07 90 1016.7
20260905030511 54 43 0.0 4.0 0.00 0.15 0.07 91 1016.7
20260905030013 54 39 0.0 1.0 0.00 0.15 0.07 91 1016.7
20260905025010 54 39 0.0 1.0 0.00 0.15 0.07 91 1016.6
20260905024510 55 39 0.0 1.0 0.00 0.15 0.07 91 1016.5
20260905024011 55 39 0.0 0.0 0.00 0.15 0.07 91 1016.6
20260905023509 55 39 0.0 0.0 0.00 0.15 0.07 90 1016.5
20260905023009 55 39 0.0 1.0 0.00 0.15 0.07 89 1016.5
20260905022509 56 39 0.0 1.0 0.00 0.15 0.07 88 1016.6
20260905022009 56 39 0.0 4.0 0.00 0.15 0.07 88 1016.6
20260905021508 56 36 0.0 0.0 0.00 0.15 0.07 88 1016.5
20260905021011 56 36 0.0 0.0 0.00 0.15 0.07 87 1016.4
20260905020511 56 36 0.0 2.0 0.00 0.15 0.07 86 1016.3
20260905020007 56 36 0.0 2.0 0.00 0.15 0.07 86 1016.3
20260905015008 56 41 0.0 3.0 0.00 0.15 0.07 85 1016.4
20260905014506 57 41 0.0 9.0 0.00 0.15 0.07 84 1016.3
20260905014006 56 49 1.0 6.0 0.00 0.15 0.07 85 1016.3
20260905013506 57 78 1.0 3.0 0.00 0.15 0.07 85 1016.3
20260905013012 56 97 0.0 2.0 0.00 0.15 0.07 85 1016.2
20260905012505 56 97 0.0 3.0 0.00 0.15 0.07 85 1016.1
20260905012007 56 97 0.0 10.0 0.00 0.15 0.07 84 1016.1
20260905011504 56 98 3.0 10.0 0.00 0.15 0.07 84 1016.0
20260905011007 56 89 1.0 7.0 0.00 0.15 0.07 84 1015.9
20260905010503 56 106 1.0 8.0 0.01 0.15 0.07 84 1015.8
20260905010004 56 98 0.0 8.0 0.01 0.15 0.07 85 1015.7
20260905005004 56 111 4.0 12.0 0.02 0.15 0.07 85 1015.6
20260905004504 56 76 4.0 9.0 0.02 0.15 0.07 86 1015.4
20260905004004 55 89 1.0 6.0 0.03 0.15 0.07 88 1015.5
20260905003504 55 81 1.0 8.0 0.03 0.15 0.07 89 1015.5
20260905003004 55 92 2.0 13.0 0.03 0.15 0.07 89 1015.5
20260905002503 55 109 3.0 13.0 0.03 0.15 0.07 90 1015.6
20260905002006 55 103 4.0 12.0 0.03 0.15 0.07 90 1015.7
20260905001503 55 111 2.0 6.0 0.03 0.15 0.07 90 1015.7
20260905001003 55 94 1.0 7.0 0.03 0.15 0.07 90 1015.8
20260905000504 55 98 2.0 7.0 0.02 0.14 0.06 90 1015.9
20260905000009 55 107 0.0 7.0 0.03 0.14 0.06 89 1016.0
20260904235006 55 98 2.0 11.0 0.03 0.14 0.06 89 1016.1
20260904234507 55 121 4.0 11.0 0.02 0.13 0.05 89 1016.0
20260904234007 55 87 3.0 10.0 0.02 0.13 0.05 89 1016.1
20260904233504 56 134 0.0 3.0 0.01 0.12 0.04 89 1016.1
20260904233004 56 134 0.0 3.0 0.01 0.12 0.04 89 1016.1
20260904232504 56 134 0.0 4.0 0.01 0.12 0.04 89 1016.1
20260904232005 56 134 1.0 8.0 0.02 0.12 0.04 89 1016.0
20260904231508 56 133 1.0 9.0 0.02 0.12 0.04 89 1016.0
20260904231003 56 123 0.0 6.0 0.03 0.12 0.04 89 1016.1
20260904230506 56 123 1.0 9.0 0.03 0.12 0.04 88 1016.1
20260904230003 56 92 3.0 9.0 0.03 0.12 0.04 88 1016.1
20260904225103 56 90 4.0 8.0 0.03 0.11 0.03 89 1015.9
20260904224601 56 107 2.0 9.0 0.03 0.11 0.03 89 1015.8
20260904224101 57 135 1.0 7.0 0.03 0.11 0.03 90 1015.6
20260904224002 57 135 2.0 7.0 0.03 0.11 0.03 90 1015.6
20260904223601 57 148 1.0 3.0 0.03 0.11 0.03 89 1015.5
20260904223058 57 148 1.0 3.0 0.03 0.11 0.03 89 1015.3
20260904222601 57 149 1.0 3.0 0.03 0.11 0.03 88 1015.4
20260904222057 57 149 1.0 3.0 0.03 0.11 0.03 88 1015.4
20260904221557 58 150 1.0 5.0 0.02 0.10 0.02 87 1015.3
20260904221056 58 151 0.0 5.0 0.02 0.10 0.02 88 1015.2
20260904220557 59 153 0.0 3.0 0.01 0.09 0.01 87 1015.3
20260904215056 60 153 0.0 5.0 0.01 0.09 0.01 83 1015.3
20260904214557 60 153 1.0 6.0 0.00 0.08 0.00 82 1015.2
20260904214056 60 153 1.0 10.0 0.00 0.08 0.00 81 1015.2
20260904213556 61 148 6.0 10.0 0.00 0.08 0.00 77 1015.1
20260904213054 62 176 5.0 8.0 0.00 0.08 0.00 74 1015.1
20260904212553 63 215 3.0 7.0 0.00 0.08 0.00 73 1015.0
20260904212053 63 221 3.0 7.0 0.00 0.08 0.00 70 1014.9
20260904211552 63 227 2.0 6.0 0.00 0.08 0.00 70 1014.8
20260904211052 63 232 4.0 6.0 0.00 0.08 0.00 68 1014.8
20260904210552 64 246 3.0 11.0 0.00 0.08 0.00 69 1014.8
20260904210052 64 246 3.0 11.0 0.00 0.08 0.00 66 1014.8
20260904205052 66 300 4.0 10.0 0.00 0.08 0.00 64 1014.6
20260904204551 67 297 2.0 8.0 0.00 0.08 0.00 64 1014.5
20260904204050 67 272 4.0 8.0 0.00 0.08 0.00 65 1014.5
20260904203551 66 275 3.0 9.0 0.00 0.08 0.00 66 1014.6
20260904203050 65 293 5.0 10.0 0.00 0.08 0.00 66 1014.5
20260904202550 65 307 6.0 10.0 0.00 0.08 0.00 67 1014.7
20260904202049 65 247 5.0 9.0 0.00 0.08 0.00 67 1014.7
20260904201550 66 264 3.0 11.0 0.00 0.08 0.00 66 1014.8
20260904201049 67 304 7.0 11.0 0.00 0.08 0.00 64 1014.6
20260904200550 67 309 5.0 10.0 0.00 0.08 0.00 67 1014.5
20260904200055 67 296 5.0 10.0 0.00 0.08 0.00 68 1014.6
20260904195050 66 313 0.0 3.0 0.00 0.08 0.00 69 1014.6
20260904194547 65 346 0.0 2.0 0.00 0.08 0.00 68 1014.5
20260904194047 66 346 0.0 2.0 0.00 0.08 0.00 68 1014.6
20260904193546 66 219 0.0 2.0 0.00 0.08 0.00 70 1014.6
20260904193044 65 22 0.0 2.0 0.00 0.08 0.00 70 1014.5
20260904192543 65 54 0.0 2.0 0.00 0.08 0.00 73 1014.4
20260904192045 65 244 0.0 3.0 0.00 0.08 0.00 72 1014.5
20260904191544 65 233 0.0 3.0 0.00 0.08 0.00 71 1014.5
20260904191045 65 246 0.0 4.0 0.00 0.08 0.00 73 1014.5
20260904190546 65 217 0.0 3.0 0.00 0.08 0.00 73 1014.5
20260904190047 64 34 2.0 3.0 0.00 0.08 0.00 73 1014.5
20260904185038 64 259 3.0 11.0 0.00 0.08 0.00 74 1014.5
20260904184538 65 293 3.0 11.0 0.00 0.08 0.00 73 1014.5
20260904184037 64 285 3.0 8.0 0.00 0.08 0.00 72 1014.5
20260904183537 63 312 2.0 6.0 0.00 0.08 0.00 71 1014.5
20260904183048 62 281 2.0 5.0 0.00 0.08 0.00 75 1014.5
20260904182539 63 267 2.0 7.0 0.00 0.08 0.00 74 1014.6
20260904182035 65 301 3.0 8.0 0.00 0.08 0.00 69 1014.9
20260904181539 64 285 4.0 8.0 0.00 0.08 0.00 72 1014.5
20260904181033 63 270 4.0 8.0 0.00 0.08 0.00 74 1014.6
20260904180534 63 302 1.0 5.0 0.00 0.08 0.00 73 1014.6
20260904180032 63 319 3.0 6.0 0.00 0.08 0.00 72 1014.7
20260904175034 62 312 4.0 6.0 0.00 0.08 0.00 74 1014.7
20260904174532 62 340 2.0 5.0 0.00 0.08 0.00 75 1014.7
20260904174030 61 325 3.0 5.0 0.00 0.08 0.00 76 1014.6
20260904173527 61 336 3.0 5.0 0.00 0.08 0.00 76 1014.7
20260904173026 60 9 1.0 3.0 0.00 0.08 0.00 76 1014.7
20260904172527 60 9 0.0 3.0 0.00 0.08 0.00 78 1014.7
20260904172024 60 9 0.0 4.0 0.00 0.09 0.00 80 1014.6
20260904171522 59 9 1.0 4.0 0.00 0.09 0.00 80 1014.7
20260904171021 58 12 0.0 3.0 0.00 0.09 0.00 82 1014.6
20260904170520 57 12 0.0 4.0 0.00 0.09 0.00 84 1014.5
20260904170019 57 12 1.0 4.0 0.00 0.09 0.00 82 1014.7
20260904165019 57 11 1.0 5.0 0.00 0.09 0.00 84 1014.6
20260904164517 57 11 2.0 5.0 0.00 0.09 0.00 85 1014.6
20260904164019 56 42 1.0 4.0 0.00 0.09 0.00 86 1014.6
20260904163517 56 42 1.0 4.0 0.00 0.09 0.00 85 1014.6
20260904163016 56 44 2.0 5.0 0.00 0.09 0.00 86 1014.7
20260904162515 56 46 1.0 5.0 0.00 0.09 0.00 88 1014.6
20260904162014 56 120 1.0 3.0 0.00 0.09 0.00 89 1014.6
20260904161512 56 120 0.0 2.0 0.00 0.09 0.00 89 1014.6
20260904161016 56 120 0.0 3.0 0.00 0.09 0.00 89 1014.5
20260904160514 55 120 1.0 3.0 0.00 0.09 0.00 90 1014.6
20260904160008 54 120 0.0 0.0 0.00 0.09 0.00 89 1014.5
20260904155007 54 120 0.0 1.0 0.00 0.09 0.00 90 1014.4
20260904154506 54 120 0.0 1.0 0.00 0.09 0.00 91 1014.3
20260904154007 53 120 0.0 1.0 0.00 0.09 0.00 91 1014.3
20260904153503 53 120 0.0 1.0 0.00 0.09 0.00 92 1014.3
20260904153002 53 120 0.0 1.0 0.00 0.09 0.00 93 1014.2
20260904152600 53 120 0.0 1.0 0.00 0.09 0.00 93 1014.3
20260904152059 53 120 0.0 1.0 0.00 0.09 0.00 94 1014.2
20260904151558 53 120 0.0 0.0 0.00 0.09 0.00 94 1014.2
20260904151056 52 120 0.0 1.0 0.00 0.09 0.00 94 1014.1
20260904150556 52 120 0.0 2.0 0.00 0.09 0.00 94 1014.0
20260904150055 52 120 0.0 2.0 0.00 0.09 0.00 94 1014.1
20260904145054 52 120 0.0 2.0 0.00 0.09 0.00 93 1014.1
20260904144553 52 120 0.0 2.0 0.00 0.09 0.00 93 1014.0
20260904144051 52 120 0.0 0.0 0.00 0.09 0.00 93 1014.0
20260904143550 52 120 0.0 0.0 0.00 0.09 0.00 93 1013.9
20260904143049 51 120 0.0 0.0 0.00 0.09 0.00 93 1013.8
20260904142550 51 120 0.0 0.0 0.00 0.09 0.00 93 1013.7
20260904142049 51 120 0.0 1.0 0.00 0.11 0.00 92 1013.7
20260904141546 51 120 0.0 2.0 0.00 0.11 0.00 92 1013.6
20260904141046 51 120 0.0 2.0 0.00 0.11 0.00 92 1013.6
20260904140544 51 120 0.0 0.0 0.00 0.11 0.00 92 1013.5
20260904140043 51 120 0.0 0.0 0.00 0.11 0.00 92 1013.4
20260904135646 51 120 0.0 0.0 0.00 0.11 0.00 92 1013.5
20260904135042 51 120 0.0 0.0 0.00 0.11 0.00 92 1013.4
20260904134542 51 120 0.0 0.0 0.00 0.11 0.00 92 1013.4
20260904134041 51 120 0.0 1.0 0.00 0.11 0.00 92 1013.3
20260904133540 51 120 0.0 1.0 0.00 0.11 0.00 92 1013.2
20260904133046 51 120 0.0 6.0 0.00 0.11 0.00 92 1013.2
20260904132540 51 120 0.0 6.0 0.00 0.11 0.00 92 1013.1
20260904132039 51 119 0.0 4.0 0.00 0.12 0.00 92 1013.1
20260904131546 51 119 0.0 3.0 0.00 0.12 0.00 92 1013.1
20260904131038 51 119 0.0 4.0 0.00 0.12 0.00 92 1013.0
20260904130539 51 119 0.0 4.0 0.00 0.12 0.00 92 1013.0
20260904130038 51 119 0.0 1.0 0.00 0.12 0.00 92 1012.9
20260904125637 51 119 0.0 1.0 0.00 0.12 0.00 92 1012.9
20260904125037 51 119 0.0 1.0 0.00 0.12 0.00 92 1012.9
20260904124537 51 119 0.0 0.0 0.00 0.12 0.00 92 1012.9
20260904124037 51 119 0.0 0.0 0.00 0.12 0.00 91 1012.8
20260904123536 51 119 0.0 0.0 0.00 0.12 0.00 91 1012.8
20260904123037 51 119 0.0 0.0 0.00 0.12 0.00 91 1012.8
20260904122537 52 119 0.0 0.0 0.00 0.12 0.00 91 1012.7
20260904122033 52 119 0.0 1.0 0.00 0.12 0.00 91 1012.7
20260904121532 52 119 0.0 2.0 0.00 0.12 0.00 91 1012.7
20260904121032 52 119 0.0 2.0 0.00 0.12 0.00 92 1012.7
20260904120529 52 119 0.0 2.0 0.00 0.12 0.00 92 1012.6
20260904120027 51 119 0.0 3.0 0.00 0.12 0.00 92 1012.7
20260904115025 51 119 0.0 2.0 0.00 0.12 0.00 92 1012.5
20260904114524 52 119 0.0 4.0 0.00 0.12 0.00 92 1012.6
20260904114024 52 119 0.0 2.0 0.00 0.12 0.00 92 1012.5
20260904113522 51 119 0.0 2.0 0.00 0.12 0.00 92 1012.4
20260904113035 51 119 0.0 3.0 0.00 0.12 0.00 92 1012.5
20260904112522 51 119 0.0 3.0 0.00 0.12 0.00 93 1012.4
20260904112023 51 119 1.0 3.0 0.00 0.12 0.00 93 1012.3
20260904111526 51 119 0.0 4.0 0.00 0.12 0.00 93 1012.4
20260904111020 51 119 1.0 4.0 0.00 0.12 0.00 93 1012.4
20260904110519 51 118 0.0 3.0 0.00 0.12 0.00 94 1012.4
20260904110019 51 118 0.0 8.0 0.00 0.12 0.00 94 1012.4
20260904105019 51 34 0.0 4.0 0.00 0.12 0.00 94 1012.4
20260904104519 51 33 1.0 4.0 0.00 0.12 0.00 94 1012.4